Regional Weather Roundup
Issued by NWS Bismarck, ND

Home | Current Version | Previous Version | Text Only | Print | Product List | Glossary On
Versions: 1 2 3 4 5 6 7 8 9 10 11 12 13 14 15 16 17 18 19 20 21 22 23 24 25 26 27 28 29 30 31 32 33 34 35 36 37 38 39 40 41 42 43 44 45 46 47 48 49 50
000
ASUS43 KBIS 300502
RWRBIS

NWR BROADCAST TEXT
NATIONAL WEATHER SERVICE BISMARCK ND
1200 AM CDT THU JUL 30 2015

NOTE: "FAIR" INDICATES FEW OR NO CLOUDS BELOW 12,000 FEET WITH NO
SIGNIFICANT WEATHER AND/OR OBSTRUCTIONS TO VISIBILITY.


CITY           SKY/WX    TMP DP  RH WIND       PRES   REMARKS
WILLISTON      CLEAR     63  52  67 CALM      30.08S
MINOT          CLEAR     62  53  72 SW8       30.04R
MINOT AFB      CLEAR     59  57  94 W10       30.02S
BISMARCK       CLEAR     64  51  62 W6        30.09R
DICKINSON      CLEAR     59  46  62 CALM      30.13S
GARRISON         N/A     60  51  72 W7        30.07S
HETTINGER ARPT CLEAR     54  47  77 CALM      30.17S
JAMESTOWN      CLEAR     65  52  62 W9        30.02R
HAZEN          FAIR      55  48  76 SW3       30.10S
STANLEY        MOCLDY    59  55  88 W7        30.09S
$$

CITY           SKY/WX    TMP DP  RH WIND       PRES   REMARKS
GRAND FORKS    CLEAR     64  58  80 W9        29.92R
GRAND FORKS AF CLEAR     65  58  76 W9        29.93R
DEVILS LAKE    CLEAR     66  54  63 W10       29.97R
FARGO          CLEAR     68  57  68 W13       29.96R
CAVALIER       FAIR      64  57  77 W8        29.90S
GRAFTON        FAIR      64  61  88 W9        29.91S
GWINNER        FAIR      63  55  77 W9        30.03S
LANGDON        FAIR      59  57  94 W9        29.96R
$$

CITY           SKY/WX    TMP DP  RH WIND       PRES   REMARKS
ABERDEEN       CLEAR     58  54  86 SW7       30.06S
MOBRIDGE       CLEAR     60  56  86 N6        30.09R
BUFFALO          N/A     66  39  37 N6        30.12R
RAPID CITY     CLEAR     59  48  67 VRB6      30.20S
GLASGOW        CLEAR     68  45  43 SW5       30.08S
SIDNEY         CLEAR     61  50  67 CALM      30.10R
WOLF POINT     CLEAR     60  49  66 CALM      30.09S
GLENDIVE       CLEAR     57  50  77 W7        30.14S
MILES CITY     CLEAR     70  43  37 NW5       30.15R
BAKER          CLEAR     58  42  55 SE3       30.18S
$$

CITY           SKY/WX    TMP DP  RH WIND       PRES   REMARKS
BILLINGS       CLEAR     71  38  29 S6        30.23R
GREAT FALLS    CLEAR     60  43  53 SW7       30.19R
$$




USA.gov is the U.S. government's official web portal to all federal, state and local government web resources and services.